Location: ???????
(54.6339°N, 39.4245°E)
Time: 07:13:16
(UTC+00:00)

Cosmos 1515 Rocket - Pass Details

Date: 19 May 2025
Orbit: 601 x 622 km, 82.5° (Epoch: 16 June)

Event Time Altitude Azimuth Distance (km) Brightness Sun altitude
Exits shadow 23:14:56 15° 225° (SW) 1,649 5.1 -11.4°
Maximum altitude 23:18:09 39° 290° (WNW) 924 4.4 -11.1°
Drops below altitude 10° 23:22:18 10° 360° (N) 1,990 7.2 -10.8°
Sets 23:24:40 0° 8° (N) 2,904 8.4 -10.7°
